Hourly Weather Roundup
Issued by NWS Central Illinois

Home | Current Version | Previous Version | Text Only | Print | Product List | Glossary On
Versions: 1 2 3 4 5 6 7 8 9 10 11 12 13 14 15 16 17 18 19 20 21 22 23 24 25 26 27 28 29 30 31 32 33 34 35 36 37 38 39 40 41 42 43 44 45 46 47 48 49 50
000
NZUS43 KILX 020710
HWRILX

AREA WEATHER ROUNDUP
NATIONAL WEATHER SERVICE, LINCOLN IL
200 AM CDT SAT AUG 02 2014


CITY           SKY/WX    TMP DP  RH WIND       PRES   REMARKS
BLOOMINGTON    PTCLDY    57  55  93 S5        30.10F
CHAMPAIGN      CLEAR     61  59  93 CALM      30.09F
DECATUR        CLEAR     59  57  93 NW7       30.10F
FLORA          CLOUDY    64  60  89 N6        30.09F
GALESBURG      CLEAR     58  57  96 N8        30.11R
JACKSONVILLE   CLEAR     61  59  94 CALM      30.11S
LACON          MOCLDY    59  57  92 CALM      30.09R
LAWRENCEVILLE  CLOUDY    68  63  84 N5        30.07F THUNDER
LITCHFIELD     CLEAR     59  58  97 CALM      30.11F
$$


CITY           SKY/WX    TMP DP  RH WIND       PRES   REMARKS
LINCOLN        PTCLDY    60  58  94 CALM      30.07F FOG
MACOMB         CLEAR     57  57 100 CALM      30.13R
MATTOON        CLEAR     61  60  97 CALM      30.09F FOG
MT CARMEL AP   CLOUDY    68  64  88 CALM      30.07F
OLNEY-NOBLE AP CLOUDY    63  61  94 CALM      30.09F
PARIS          CLOUDY    65  64  95 CALM      30.09F
PEORIA         PTCLDY    65  61  87 SW5       30.09F
PONTIAC        MOCLDY    61  61 100 CALM      30.08S FOG
RANTOUL        PTCLDY    65  57  77 CALM      30.10F
ROBINSON       MOCLDY    67  66  96 CALM      30.09S
SPRINGFIELD    PTCLDY    63  61  93 CALM      30.10F
TAYLORVILLE    CLEAR     55  55 100 CALM      30.10F FOG
$$

...REGIONAL REPORTS...


CITY           SKY/WX    TMP DP  RH WIND       PRES   REMARKS
CHICAGO O`HARE PTCLDY    64  53  67 W7        30.08S
KANKAKEE       FOG       59  58  99 CALM      30.09S VSB 1/2
MOLINE         CLEAR     62  60  93 CALM      30.09F
MOUNT VERNON   PTCLDY    64  59  82 CALM      30.08F
PITTSFIELD     CLEAR     63  61  93 CALM      30.11F
QUINCY         CLEAR     63  61  93 SE5       30.10S
ROCKFORD       PTCLDY    60  56  86 N6        30.11R
$$


CITY           SKY/WX    TMP DP  RH WIND       PRES   REMARKS
BURLINGTON     CLEAR     62  60  93 CALM      30.09F
CEDAR RAPIDS   CLEAR     64  62  93 SW5       30.10S
DES MOINES     CLEAR     69  60  73 CALM      30.11F
KIRKSVILLE     CLEAR     63  60  90 E3        30.12S
OTTUMWA        CLEAR     63  61  93 SW3       30.11S
ST LOUIS       PTCLDY    66  60  81 N3        30.09F
$$


CITY           SKY/WX    TMP DP  RH WIND       PRES   REMARKS
TERRE HAUTE    CLOUDY    65  62  90 NE3       30.08F
EVANSVILLE     CLOUDY    71  63  75 N3        30.07S
INDIANAPOLIS   CLOUDY    63  60  90 NW6       30.09F
LAFAYETTE      MOCLDY    62  62 100 CALM      30.08F FOG
MADISON        CLEAR     59  57  93 N3        30.10F
MILWAUKEE      PTCLDY    61  55  81 CALM      30.09S
$$





USA.gov is the U.S. government's official web portal to all federal, state and local government web resources and services.